Tracking 30970 objects as of 3-Jul-2025
HD Live streaming from Space Station
objects crossing your sky now

GEESAT 3-06

Track GEESAT 3-06 now!
10-day predictions


NORAD ID: 61016
Int'l Code: 2024-159F
Perigee: 590.5 km
Apogee: 598.9 km
Inclination: 50.0 °
Period: 96.4 minutes
Semi major axis: 6965 km
RCS: Unknown
Launch date: September 5, 2024
Source: People's Republic of China (PRC)
Launch site: Taiyaun Space Center, China (TSC)
Your satellite tracking list
Your tracking list is empty




NASA's NSSDC Master Catalog

Two Line Element Set (TLE):
1 61016U 24159F   25183.70523189  .00002548  00000-0  26345-3 0  9991
2 61016  49.9984 269.7330 0006043 200.7802 159.2895 14.93342159 44784
Source of the keplerian elements: AFSPC